This is the latest recevied weather packets stored in our database for station/object SP9KB-14. If no packets are shown the sender has not sent any weather packets the latest 10 day(s).
| Time | Temp. | Humidity | Pressure | Rain* | Wind** | Luminosity | Snow |
|---|---|---|---|---|---|---|---|
| 1777934403 | 15° C | 52% | 1036.6 hPa | 0 mm | - | - | - |
| 1777934103 | 15.56° C | 52% | 1036.6 hPa | 0 mm | - | - | - |
| 1777933802 | 15.56° C | 51% | 1036.5 hPa | 0 mm | - | - | - |
| 1777933502 | 16.11° C | 50% | 1036.4 hPa | 0 mm | - | - | - |
| 1777933201 | 16.11° C | 50% | 1036.6 hPa | 0 mm | - | - | - |
| 1777932600 | 16.67° C | 50% | 1036.6 hPa | 0 mm | - | - | - |
| 1777932299 | 16.11° C | 50% | 1036.5 hPa | 0 mm | - | - | - |
| 1777931999 | 15.56° C | 52% | 1036.6 hPa | 0 mm | - | - | - |
| 1777931698 | 15.56° C | 54% | 1036.4 hPa | 0 mm | - | - | - |
| 1777931398 | 15.56° C | 54% | 1036.8 hPa | 0 mm | - | - | - |
| 1777931097 | 15° C | 55% | 1036.6 hPa | 0 mm | - | - | - |
| 1777930797 | 15.56° C | 55% | 1036.6 hPa | 0 mm | - | - | - |
| 1777930496 | 15.56° C | 55% | 1036.6 hPa | 0 mm | - | - | - |
| 1777930196 | 16.11° C | 55% | 1036.7 hPa | 0 mm | - | - | - |
| 1777929895 | 16.11° C | 55% | 1036.6 hPa | 0 mm | - | - | - |
| 1777929595 | 17.22° C | 53% | 1036.8 hPa | 0 mm | - | - | - |
| 1777929294 | 17.22° C | 52% | 1036.5 hPa | 0 mm | - | - | - |
| 1777928993 | 17.22° C | 51% | 1036.7 hPa | 0 mm | - | - | - |
| 1777928693 | 16.67° C | 52% | 1036.6 hPa | 0 mm | - | - | - |
| 1777928392 | 16.67° C | 53% | 1036.6 hPa | 0 mm | - | - | - |
| 1777928092 | 17.22° C | 54% | 1036.6 hPa | 0 mm | - | - | - |
| 1777927791 | 16.67° C | 54% | 1036.6 hPa | 0 mm | - | - | - |
| 1777927491 | 16.67° C | 54% | 1036.6 hPa | 0 mm | - | - | - |
| 1777927190 | 17.22° C | 54% | 1036.8 hPa | 0 mm | - | - | - |
| 1777926890 | 17.78° C | 53% | 1036.7 hPa | 0 mm | - | - | - |
* Rain latest hour (hover to see other rain measurements)
** Current wind speed in m/s (hover to see current wind gust speed)